When you browse on this site, cookies collect data to enhance your experience and personalize the content and advertising you see.
Visit our Privacy Policy to learn more. By continuing to use the site, you agree to this use of cookies and data.

Meteo pe oră la Río Gallegos

Astăzi, 21 Septembrie, Luni

Timp Temperatura Precipitaţii Vânt Presiune Umiditate
00:00 +7°C° 0 mm 4 m/s 759 mmHg 52%
01:00 +8°C° 0 mm 3 m/s 758 mmHg 51%
02:00 +6°C° 0 mm 4 m/s 757 mmHg 52%
03:00 +6°C° 0 mm 4 m/s 756 mmHg 53%
04:00 +6°C° 0 mm 5 m/s 755 mmHg 54%
05:00 +6°C° 0 mm 5 m/s 755 mmHg 56%
06:00 +6°C° 0 mm 4 m/s 754 mmHg 58%
07:00 +6°C° 0 mm 4 m/s 753 mmHg 60%
08:00 +8°C° 0 mm 3 m/s 753 mmHg 56%
09:00 +8°C° 0 mm 3 m/s 752 mmHg 52%
10:00 +9°C° 0 mm 2 m/s 751 mmHg 48%
11:00 +10°C° 0 mm 2 m/s 750 mmHg 47%
12:00 +11°C° 0 mm 1 m/s 750 mmHg 45%
13:00 +12°C° 0 mm 1 m/s 749 mmHg 44%
14:00 +12°C° 0 mm 1 m/s 748 mmHg 44%
15:00 +12°C° 0 mm 2 m/s 748 mmHg 44%
16:00 +12°C° 0 mm 2 m/s 748 mmHg 44%
17:00 +10°C° 0 mm 3 m/s 748 mmHg 51%
18:00 +8°C° 0 mm 4 m/s 747 mmHg 57%
19:00 +6°C° 0 mm 5 m/s 747 mmHg 64%
20:00 +6°C° 0 mm 5 m/s 747 mmHg 66%
21:00 +6°C° 0 mm 5 m/s 747 mmHg 69%
22:00 +5°C° 0 mm 5 m/s 747 mmHg 72%
23:00 +5°C° 0 mm 4 m/s 746 mmHg 72%

Mâine, 22 Septembrie, Marţi

Timp Temperatura Precipitaţii Vânt Presiune Umiditate
00:00 +5°C° 0 mm 4 m/s 746 mmHg 72%
01:00 +5°C° 0 mm 4 m/s 746 mmHg 72%
02:00 +5°C° 0 mm 5 m/s 747 mmHg 74%
03:00 +4°C° 0 mm 6 m/s 747 mmHg 76%
04:00 +4°C° 0 mm 7 m/s 748 mmHg 78%
05:00 +4°C° 0 mm 8 m/s 748 mmHg 74%
06:00 +3°C° 0 mm 10 m/s 749 mmHg 70%
07:00 +3°C° 0 mm 12 m/s 750 mmHg 66%
08:00 +4°C° 0 mm 13 m/s 750 mmHg 61%
09:00 +5°C° 0 mm 14 m/s 751 mmHg 55%
10:00 +6°C° 0 mm 16 m/s 751 mmHg 50%
11:00 +6°C° 0 mm 15 m/s 752 mmHg 52%
12:00 +6°C° 0 mm 15 m/s 752 mmHg 54%
13:00 +6°C° 0 mm 15 m/s 752 mmHg 56%
14:00 +6°C° 0 mm 14 m/s 752 mmHg 56%
15:00 +6°C° 0 mm 14 m/s 753 mmHg 55%
16:00 +7°C° 0 mm 13 m/s 753 mmHg 55%
17:00 +6°C° 0 mm 11 m/s 754 mmHg 58%
18:00 +5°C° 0 mm 9 m/s 754 mmHg 62%
19:00 +5°C° 0 mm 7 m/s 755 mmHg 65%
20:00 +4°C° 0 mm 6 m/s 755 mmHg 66%
21:00 +5°C° 0 mm 5 m/s 755 mmHg 67%
22:00 +5°C° 0 mm 4 m/s 756 mmHg 68%
23:00 +5°C° 0 mm 4 m/s 756 mmHg 68%

Poimâine, 23 Septembrie, Miercuri

Timp Temperatura Precipitaţii Vânt Presiune Umiditate
00:00 +5°C° 0 mm 4 m/s 756 mmHg 69%
01:00 +5°C° 0 mm 5 m/s 756 mmHg 69%
02:00 +5°C° 0 mm 4 m/s 756 mmHg 70%
03:00 +5°C° 0 mm 4 m/s 757 mmHg 70%
04:00 +4°C° 0 mm 4 m/s 757 mmHg 71%
05:00 +5°C° 0 mm 4 m/s 757 mmHg 68%
06:00 +5°C° 0 mm 4 m/s 757 mmHg 65%
07:00 +5°C° 0 mm 5 m/s 757 mmHg 62%
08:00 +7°C° 0 mm 5 m/s 757 mmHg 57%
09:00 +10°C° 0 mm 4 m/s 758 mmHg 52%
10:00 +11°C° 0 mm 4 m/s 758 mmHg 47%
11:00 +12°C° 0 mm 5 m/s 757 mmHg 45%
12:00 +13°C° 0 mm 5 m/s 757 mmHg 43%
13:00 +14°C° 0 mm 6 m/s 756 mmHg 41%
14:00 +14°C° 0 mm 5 m/s 755 mmHg 41%
15:00 +14°C° 0 mm 5 m/s 755 mmHg 42%
16:00 +14°C° 0 mm 5 m/s 754 mmHg 42%
17:00 +13°C° 0 mm 5 m/s 754 mmHg 46%
18:00 +10°C° 0 mm 5 m/s 754 mmHg 50%
19:00 +9°C° 0 mm 5 m/s 753 mmHg 54%
20:00 +9°C° 0 mm 5 m/s 753 mmHg 57%
21:00 +8°C° 0 mm 4 m/s 753 mmHg 60%
22:00 +7°C° 0 mm 4 m/s 753 mmHg 62%
23:00 +8°C° 0 mm 3 m/s 753 mmHg 65%

24 Septembrie, Joi

Timp Temperatura Precipitaţii Vânt Presiune Umiditate
00:00 +7°C° 0 mm 3 m/s 753 mmHg 67%
01:00 +7°C° 0 mm 2 m/s 753 mmHg 69%
02:00 +7°C° 0 mm 2 m/s 752 mmHg 69%
03:00 +7°C° 0 mm 2 m/s 752 mmHg 69%
04:00 +7°C° 0 mm 2 m/s 752 mmHg 69%
05:00 +7°C° 0 mm 3 m/s 752 mmHg 68%
06:00 +6°C° 0 mm 4 m/s 752 mmHg 67%
07:00 +7°C° 0 mm 5 m/s 752 mmHg 66%
08:00 +8°C° 0 mm 5 m/s 752 mmHg 61%
09:00 +9°C° 0 mm 6 m/s 752 mmHg 55%
10:00 +10°C° 0 mm 7 m/s 752 mmHg 50%
11:00 +11°C° 0 mm 8 m/s 752 mmHg 48%
12:00 +12°C° 0 mm 8 m/s 752 mmHg 46%
13:00 +12°C° 0 mm 9 m/s 751 mmHg 45%
14:00 +12°C° 0 mm 9 m/s 751 mmHg 49%
15:00 +11°C° 0 mm 9 m/s 751 mmHg 54%
16:00 +10°C° 0 mm 9 m/s 751 mmHg 59%
17:00 +9°C° 0 mm 8 m/s 752 mmHg 61%
18:00 +8°C° 0 mm 7 m/s 752 mmHg 63%
19:00 +7°C° 0 mm 6 m/s 753 mmHg 64%
20:00 +7°C° 0 mm 6 m/s 753 mmHg 64%
21:00 +6°C° 0 mm 5 m/s 753 mmHg 63%
22:00 +6°C° 0 mm 5 m/s 753 mmHg 63%
23:00 +6°C° 0 mm 5 m/s 753 mmHg 64%

25 Septembrie, Vineri

Timp Temperatura Precipitaţii Vânt Presiune Umiditate
00:00 +6°C° 0 mm 5 m/s 753 mmHg 65%
01:00 +5°C° 0 mm 5 m/s 753 mmHg 66%
02:00 +5°C° 0 mm 5 m/s 753 mmHg 69%
03:00 +5°C° 0 mm 4 m/s 753 mmHg 71%
04:00 +5°C° 0 mm 4 m/s 753 mmHg 74%
05:00 +4°C° 0 mm 6 m/s 753 mmHg 70%
06:00 +5°C° 0 mm 7 m/s 754 mmHg 65%
07:00 +6°C° 0 mm 8 m/s 754 mmHg 61%
08:00 +6°C° 0 mm 9 m/s 754 mmHg 63%
09:00 +7°C° 0 mm 11 m/s 754 mmHg 64%
10:00 +7°C° 0 mm 12 m/s 755 mmHg 65%
11:00 +8°C° 0 mm 13 m/s 755 mmHg 60%
12:00 +9°C° 0 mm 13 m/s 755 mmHg 55%
13:00 +10°C° 0 mm 14 m/s 755 mmHg 50%
14:00 +9°C° 0 mm 13 m/s 755 mmHg 51%
15:00 +9°C° 0 mm 13 m/s 755 mmHg 52%
16:00 +8°C° 0 mm 12 m/s 756 mmHg 54%
17:00 +7°C° 0 mm 10 m/s 756 mmHg 58%
18:00 +6°C° 0 mm 8 m/s 756 mmHg 61%
19:00 +6°C° 0 mm 7 m/s 756 mmHg 65%
20:00 +5°C° 0 mm 6 m/s 756 mmHg 69%
21:00 +5°C° 0 mm 5 m/s 757 mmHg 73%
22:00 +5°C° 0 mm 3 m/s 757 mmHg 76%
23:00 +4°C° 0 mm 3 m/s 757 mmHg 78%

26 Septembrie, Sâmbătă

Timp Temperatura Precipitaţii Vânt Presiune Umiditate
00:00 +4°C° 0 mm 3 m/s 757 mmHg 79%
01:00 +4°C° 0 mm 3 m/s 757 mmHg 80%
02:00 +3°C° 0 mm 5 m/s 757 mmHg 80%
03:00 +3°C° 0 mm 6 m/s 758 mmHg 79%
04:00 +3°C° 0 mm 7 m/s 758 mmHg 79%
05:00 +3°C° 0 mm 7 m/s 758 mmHg 76%
06:00 +4°C° 0 mm 8 m/s 758 mmHg 73%
07:00 +4°C° 0 mm 8 m/s 759 mmHg 70%
08:00 +5°C° 0 mm 8 m/s 759 mmHg 65%
09:00 +7°C° 0 mm 8 m/s 759 mmHg 59%
10:00 +9°C° 0 mm 8 m/s 759 mmHg 53%
11:00 +9°C° 0 mm 7 m/s 759 mmHg 50%
12:00 +10°C° 0 mm 6 m/s 759 mmHg 48%
13:00 +10°C° 0 mm 5 m/s 758 mmHg 45%
14:00 +10°C° 0 mm 5 m/s 758 mmHg 48%
15:00 +10°C° 0 mm 5 m/s 758 mmHg 51%
16:00 +9°C° 0 mm 5 m/s 758 mmHg 54%
17:00 +8°C° 0 mm 5 m/s 757 mmHg 58%
18:00 +8°C° 0 mm 4 m/s 757 mmHg 62%
19:00 +7°C° 0 mm 4 m/s 757 mmHg 66%
20:00 +7°C° 0 mm 5 m/s 756 mmHg 62%
21:00 +7°C° 0 mm 5 m/s 756 mmHg 58%
22:00 +7°C° 0 mm 6 m/s 755 mmHg 55%
23:00 +7°C° 0 mm 6 m/s 755 mmHg 58%
Arată mai mult